TimeEDT,TemperatureF,Dew PointF,Humidity,Sea Level PressureIn,VisibilityMPH,Wind Direction,Wind SpeedMPH,Gust SpeedMPH,PrecipitationIn,Events,Conditions,WindDirDegrees,DateUTC
12:10 AM,78.8,69.8,74,29.77,10.0,SSW,8.1,-,N/A,,Partly Cloudy,200,2013-07-20 04:10:00
12:53 AM,80.1,70.0,71,29.74,10.0,WNW,9.2,-,0.00,,Mostly Cloudy,290,2013-07-20 04:53:00
1:53 AM,79.0,70.0,74,29.76,10.0,West,4.6,-,N/A,,Overcast,270,2013-07-20 05:53:00
2:53 AM,77.0,66.9,71,29.76,10.0,NNW,4.6,-,N/A,,Scattered Clouds,330,2013-07-20 06:53:00
3:53 AM,73.9,68.0,82,29.78,10.0,NNE,8.1,-,N/A,,Clear,30,2013-07-20 07:53:00
4:53 AM,72.0,66.0,81,29.78,10.0,NNE,5.8,-,N/A,,Clear,30,2013-07-20 08:53:00
5:53 AM,70.0,64.0,81,29.79,10.0,NNE,5.8,-,N/A,,Mostly Cloudy,30,2013-07-20 09:53:00
6:53 AM,70.0,64.0,81,29.82,10.0,Calm,Calm,-,N/A,,Mostly Cloudy,0,2013-07-20 10:53:00
7:53 AM,73.0,64.9,76,29.85,10.0,NNE,3.5,-,N/A,,Mostly Cloudy,30,2013-07-20 11:53:00
8:53 AM,75.0,64.0,69,29.86,10.0,East,4.6,-,N/A,,Scattered Clouds,90,2013-07-20 12:53:00
9:53 AM,78.1,64.9,64,29.86,10.0,Calm,Calm,-,N/A,,Scattered Clouds,0,2013-07-20 13:53:00
10:53 AM,82.0,55.9,41,29.87,10.0,NNE,5.8,-,N/A,,Scattered Clouds,20,2013-07-20 14:53:00
11:53 AM,84.0,55.0,37,29.88,10.0,NNW,8.1,-,N/A,,Scattered Clouds,340,2013-07-20 15:53:00
12:53 PM,84.9,55.9,37,29.87,10.0,Variable,4.6,-,N/A,,Scattered Clouds,0,2013-07-20 16:53:00
1:53 PM,84.0,54.0,35,29.88,10.0,NW,6.9,-,N/A,,Mostly Cloudy,310,2013-07-20 17:53:00
2:53 PM,86.0,54.0,33,29.87,10.0,West,9.2,-,N/A,,Mostly Cloudy,270,2013-07-20 18:53:00
3:53 PM,87.1,57.0,36,29.86,10.0,West,15.0,20.7,N/A,,Mostly Cloudy,280,2013-07-20 19:53:00
4:53 PM,84.9,57.0,38,29.87,10.0,NW,10.4,19.6,N/A,,Scattered Clouds,320,2013-07-20 20:53:00
5:53 PM,84.9,57.0,38,29.86,10.0,West,12.7,-,N/A,,Scattered Clouds,270,2013-07-20 21:53:00
6:53 PM,82.9,59.0,44,29.87,10.0,NW,10.4,18.4,N/A,,Scattered Clouds,310,2013-07-20 22:53:00
7:53 PM,82.0,59.0,45,29.88,10.0,North,6.9,-,N/A,,Scattered Clouds,350,2013-07-20 23:53:00
8:53 PM,78.1,55.9,46,29.89,10.0,North,8.1,-,N/A,,Scattered Clouds,360,2013-07-21 00:53:00
9:53 PM,75.0,55.0,50,29.92,10.0,North,5.8,-,N/A,,Partly Cloudy,350,2013-07-21 01:53:00
10:53 PM,73.0,55.0,53,29.94,10.0,North,5.8,-,N/A,,Partly Cloudy,350,2013-07-21 02:53:00
11:53 PM,69.1,54.0,58,29.96,10.0,NNE,8.1,-,N/A,,Partly Cloudy,30,2013-07-21 03:53:00